Theta_e
325 325 326 325 326 331 333 332 332 332 333 335 337 336 335 332 333 338 340 338 338 339 342 346 345 345 346 345 344 344 346 346 345 345 348 349 349 350 346 346 351 350 348 349 349 349 349 348 347 348 349 348 348 347 348 349 349 350 349 349 350 350 351 351 349 348 348 347 347 347 347 346 346 346 347 345 344 344 343 342 340 339 337 336 336 335
326 324 326 328 329 330 332 332 332 330 331 334 337 334 333 332 333 338 339 337 338 338 340 345 345 345 346 344 344 345 345 345 346 345 346 348 349 348 346 346 349 349 348 349 349 349 349 348 347 348 348 348 348 348 349 350 350 351 351 350 350 350 349 348 347 347 346 345 345 345 346 345 346 347 345 342 341 342 341 340 338 337 336 337 338 338
326 324 325 330 331 329 332 332 331 331 330 333 336 333 331 333 334 337 340 338 337 339 341 344 344 345 346 345 343 345 345 344 345 345 347 348 349 347 347 348 349 348 349 350 350 350 349 349 349 349 349 350 350 350 351 352 353 352 351 349 349 349 348 346 345 346 345 344 344 345 347 347 348 348 344 341 341 340 337 337 337 337 336 337 339 341
325 329 327 328 329 331 331 332 331 331 328 330 335 332 329 334 334 332 338 340 339 339 341 344 344 344 345 346 345 344 344 345 345 346 346 348 348 348 348 349 349 348 350 352 352 351 351 351 352 352 352 352 352 352 352 352 352 350 349 348 347 347 346 345 345 344 344 345 346 346 347 347 347 346 342 340 339 337 336 337 337 337 337 338 340 342
327 331 330 328 331 332 331 331 331 329 327 329 334 332 330 333 335 334 338 341 339 339 342 343 340 342 345 345 347 345 343 344 344 346 346 347 348 347 348 349 350 349 350 352 353 353 354 353 354 354 354 354 354 353 352 351 350 348 347 346 346 346 345 345 344 344 345 345 344 344 344 346 346 342 338 338 337 336 336 335 335 335 336 337 338 339
326 328 329 331 332 330 330 331 330 328 326 326 332 336 334 335 336 338 340 339 335 333 339 341 335 338 345 345 346 346 344 343 344 345 346 347 347 348 349 349 350 350 349 351 353 353 354 354 354 355 355 354 354 352 351 350 348 347 346 346 346 345 344 344 344 342 342 342 339 338 339 342 341 335 330 334 335 334 333 333 334 333 332 333 334 332
324 326 327 331 332 330 330 329 329 329 325 322 332 337 334 335 338 337 338 336 331 330 337 341 337 337 340 342 346 344 343 344 344 344 345 347 348 348 350 351 350 351 351 350 352 353 354 355 355 355 354 354 354 352 350 348 347 346 345 345 344 343 343 343 341 338 336 335 335 335 337 337 333 327 327 331 332 331 330 331 330 328 328 329 329 326
325 325 327 329 330 330 329 328 329 330 324 324 336 338 333 335 338 337 336 334 332 335 338 339 341 338 334 338 345 345 343 345 345 345 345 345 347 348 350 350 351 351 351 352 352 354 353 353 352 353 353 352 352 350 349 349 347 345 344 343 343 341 340 337 335 333 332 331 332 331 332 331 326 324 327 329 328 328 327 325 325 327 331 332 328 324
326 327 326 328 329 329 329 328 330 329 326 330 335 333 332 333 337 340 336 333 336 337 334 337 340 338 337 346 351 348 344 343 345 345 345 345 346 348 350 350 352 352 352 352 352 353 353 351 350 351 351 351 352 350 348 347 345 344 342 341 340 337 333 332 330 329 330 331 330 327 326 324 323 324 326 325 324 326 325 326 329 333 333 330 327 325
326 327 327 328 328 328 329 330 329 329 328 331 331 332 331 330 334 337 336 334 333 333 331 333 335 335 340 350 351 347 344 342 344 344 343 345 345 347 349 350 352 353 352 352 352 351 351 350 348 347 349 352 352 350 347 345 344 343 340 339 337 332 328 329 328 327 328 328 326 324 322 322 322 322 321 320 321 322 322 326 330 330 329 326 328 331
326 326 327 328 328 329 330 329 329 329 329 329 331 330 326 334 340 339 342 340 329 329 332 331 332 332 335 343 346 345 346 343 343 344 343 344 344 345 348 349 351 352 352 352 352 351 350 350 349 347 348 352 353 351 347 344 343 341 339 336 333 330 327 326 326 326 326 325 322 320 319 319 319 318 317 316 317 318 317 321 324 325 326 327 329 332
324 324 327 329 328 329 329 330 329 329 329 329 331 328 326 336 340 331 332 332 325 326 331 332 332 328 328 339 347 345 344 344 343 344 344 344 344 345 346 348 350 351 352 352 352 352 351 351 352 349 347 349 351 349 346 344 341 340 337 334 332 330 328 327 325 324 323 322 321 319 318 317 316 315 316 315 314 315 316 317 319 321 324 326 327 327
323 324 327 327 329 329 329 329 328 329 330 328 330 329 325 328 326 321 325 327 326 330 333 331 329 325 328 340 347 345 344 344 342 342 343 343 343 344 345 347 349 351 352 353 352 353 353 352 352 349 345 346 347 345 344 344 340 338 335 333 332 330 328 325 323 322 321 322 320 319 317 316 315 315 315 315 315 316 316 317 319 320 321 322 323 323
320 323 325 326 328 329 329 328 324 327 329 328 328 326 327 328 320 320 328 326 324 329 331 329 327 325 329 338 344 345 343 342 341 340 341 342 344 343 344 347 349 351 351 352 352 352 353 352 350 347 345 346 346 344 344 345 340 336 335 334 332 331 329 326 324 322 321 321 320 318 317 315 316 315 315 316 316 316 317 317 318 318 319 318 319 321
318 321 326 326 326 329 330 329 326 330 330 329 333 330 330 333 326 322 328 326 323 327 327 326 327 327 329 337 346 344 341 342 341 341 342 341 344 344 343 346 348 350 350 351 352 352 352 351 349 347 347 346 346 344 343 344 342 337 334 334 332 332 331 326 323 322 322 321 320 318 317 316 316 316 315 315 316 316 317 317 318 318 318 317 318 322
317 320 330 329 327 328 329 329 328 330 328 326 333 332 326 334 335 327 330 336 332 328 328 327 332 341 341 344 349 341 339 345 339 340 342 341 344 343 342 346 347 349 350 350 351 351 351 350 350 348 347 347 347 346 344 342 343 339 335 333 333 332 332 326 322 322 322 321 320 319 317 317 316 316 316 316 316 316 317 318 319 319 318 318 320 324
317 322 333 329 328 330 328 330 328 327 330 330 327 327 328 334 337 329 328 336 329 324 331 333 331 340 340 342 352 347 344 348 343 341 341 339 342 343 341 345 347 349 350 350 350 350 351 351 349 348 347 347 347 348 346 342 339 338 336 335 334 335 334 328 322 322 323 321 320 319 318 318 317 316 316 316 316 316 317 318 319 319 318 319 322 324
322 322 332 329 328 330 326 328 329 328 335 332 323 326 332 330 336 338 330 328 326 325 333 333 326 329 330 337 354 354 348 348 345 343 340 339 342 342 342 344 346 349 349 348 349 348 350 350 348 348 347 347 347 347 346 342 337 337 337 337 336 337 338 333 325 322 322 322 320 319 319 319 318 316 316 317 316 317 317 318 318 318 319 320 323 324
326 321 330 335 327 329 329 326 328 327 329 331 327 331 332 322 325 332 326 323 325 325 329 332 331 330 332 341 350 349 348 348 345 345 343 340 341 342 343 343 344 348 347 347 349 348 349 349 348 348 347 347 347 347 347 344 340 340 339 340 339 339 340 336 327 322 322 321 320 319 320 320 318 317 316 316 317 317 317 318 318 319 321 323 325 327
328 321 326 338 332 328 330 325 323 325 327 330 330 329 330 329 327 326 326 327 326 326 329 330 330 333 344 358 355 347 348 347 343 345 344 340 341 342 343 343 344 346 347 348 348 347 348 348 347 348 347 348 347 347 348 346 344 343 343 344 344 343 343 339 328 322 323 321 320 319 319 320 318 317 317 317 317 317 318 319 319 320 323 326 327 327
328 322 321 333 333 325 325 327 324 325 327 326 326 325 325 329 328 325 329 330 327 330 333 329 328 342 361 364 354 346 343 343 342 345 345 341 341 342 342 343 344 345 346 346 347 347 348 347 347 347 346 347 347 348 348 348 346 346 346 347 348 346 347 343 330 323 323 321 320 320 320 320 318 317 317 317 317 318 318 318 318 321 325 327 329 328
326 326 323 323 324 322 325 329 329 328 329 328 327 327 325 326 328 326 325 327 327 330 333 329 327 342 360 353 346 345 343 343 343 342 342 342 340 341 343 344 344 345 345 345 346 346 346 346 346 346 347 347 349 349 349 349 349 349 350 349 350 349 349 346 334 323 323 322 320 321 321 320 319 317 317 317 317 317 317 318 317 320 325 327 328 329
329 333 327 322 324 326 328 330 329 327 329 329 329 328 329 331 331 329 327 326 325 327 332 335 332 342 362 353 343 345 343 342 341 340 340 341 341 342 342 343 344 344 345 345 345 346 346 345 345 345 346 347 348 350 349 350 350 350 350 350 351 351 350 348 339 326 323 322 320 321 321 319 318 317 317 317 317 317 318 317 318 321 325 327 328 328
330 329 324 324 330 331 329 329 328 330 329 326 329 329 328 330 331 339 347 338 329 325 329 334 332 342 365 358 339 338 340 338 339 340 341 341 342 343 343 343 344 344 345 345 344 345 345 345 345 345 346 346 348 349 349 350 350 351 352 351 352 352 350 349 342 328 323 322 320 321 321 320 319 317 316 317 317 317 317 317 320 324 326 327 328 329
327 328 323 321 324 323 324 326 324 327 329 327 333 329 327 333 329 337 349 338 327 329 331 331 330 339 359 352 338 337 337 336 336 338 341 342 341 343 342 343 344 343 344 344 344 346 346 345 346 345 345 347 346 348 349 350 351 352 353 351 351 353 352 350 344 331 323 322 321 321 322 321 319 317 317 317 317 316 317 319 322 325 327 328 329 330
330 337 328 320 321 321 322 325 325 329 330 329 334 330 328 334 327 329 336 327 324 334 337 333 332 341 352 345 337 339 338 338 338 335 339 342 341 344 344 342 343 342 342 344 344 346 346 346 347 346 346 347 346 348 349 349 351 353 353 352 353 353 353 351 345 333 324 323 323 322 323 322 320 318 317 317 317 317 318 319 322 324 328 329 331 330
336 342 331 324 326 326 330 341 343 337 329 324 327 329 329 331 328 334 334 328 334 340 337 339 339 335 340 341 339 341 338 340 342 336 336 339 341 343 343 340 341 341 341 344 343 345 345 346 346 346 347 347 347 348 348 350 352 353 353 354 353 354 354 350 346 335 326 324 324 323 324 324 321 319 318 317 318 318 320 321 320 323 328 329 329 328
336 334 330 332 331 328 338 351 349 334 326 325 325 327 329 330 332 332 329 333 344 336 329 343 346 332 333 340 339 340 339 340 341 336 334 337 339 342 341 339 341 341 342 343 343 345 346 345 346 346 346 347 348 349 350 351 353 353 353 354 353 354 353 348 345 340 329 324 325 326 325 325 323 321 320 318 318 320 321 321 320 322 326 326 324 324
337 328 328 332 329 328 336 344 341 330 327 328 328 327 328 329 330 330 333 342 344 332 329 342 345 335 335 339 337 337 336 336 337 335 336 338 339 339 340 340 341 341 341 341 343 345 345 345 346 346 346 347 347 348 351 353 354 354 354 354 353 352 350 345 344 342 332 325 326 329 327 327 326 324 323 320 318 320 322 321 321 322 323 323 322 322
334 332 335 331 327 330 333 335 335 329 328 327 327 330 329 329 330 328 335 344 341 339 344 345 341 340 336 335 335 334 332 332 333 334 335 336 336 337 337 338 337 338 339 340 341 343 343 345 345 346 347 346 347 348 351 353 354 355 354 353 352 349 347 345 344 342 334 326 328 332 331 329 327 322 322 321 318 320 322 321 321 322 321 322 321 321
330 337 344 333 325 328 330 333 332 329 330 327 326 332 331 329 333 328 330 337 335 338 345 342 340 343 338 336 337 332 331 333 335 335 335 335 336 336 337 337 336 337 338 338 341 343 344 345 345 346 346 346 346 347 348 352 354 354 353 353 352 350 349 348 346 344 337 329 329 332 330 329 327 322 321 321 318 320 322 321 321 322 321 322 322 322
333 338 343 333 323 325 330 331 329 329 330 326 325 332 330 329 332 330 333 338 333 337 344 338 336 339 340 342 342 335 334 336 335 335 335 335 336 336 336 336 336 337 339 340 342 343 344 345 345 345 345 345 347 346 349 353 355 355 354 353 353 353 351 349 347 345 340 334 333 334 333 331 330 328 325 323 319 320 322 321 322 322 321 322 322 322
338 335 335 331 324 325 330 332 334 334 328 325 330 332 331 333 334 331 338 341 339 348 353 342 338 342 344 345 346 342 341 341 337 335 335 336 337 336 336 337 338 339 340 342 342 344 344 344 344 345 345 345 346 347 349 352 354 354 355 354 354 353 351 348 345 343 342 338 336 336 334 332 331 331 330 325 320 320 322 321 322 322 322 322 322 322
350 343 339 340 330 326 332 337 337 332 324 328 340 337 331 335 336 334 338 339 341 351 356 350 349 352 346 342 344 343 343 343 340 336 336 337 336 337 337 337 338 338 338 338 338 339 339 340 342 344 346 347 347 349 353 353 354 354 354 354 352 349 347 346 345 344 343 340 336 334 331 329 331 333 331 324 319 320 321 321 321 322 322 322 322 322
356 349 346 351 341 331 338 338 326 323 330 343 348 339 334 337 338 340 341 339 339 342 345 345 345 347 345 339 338 337 336 338 336 334 335 335 334 335 335 334 336 336 335 335 335 336 336 336 338 340 343 346 348 350 353 354 354 354 353 352 351 349 347 346 344 344 343 341 339 335 331 331 335 337 331 324 322 321 320 321 322 321 322 323 322 323
352 346 345 350 340 332 338 336 326 327 342 354 348 338 338 342 342 342 340 341 344 343 342 342 340 341 340 334 332 334 334 333 334 333 334 334 333 334 333 333 335 334 334 335 334 336 336 337 337 339 341 346 348 351 353 354 355 355 354 352 350 348 346 345 344 344 344 342 338 334 333 335 339 339 332 325 323 321 319 320 321 321 322 323 324 326
356 356 351 344 337 335 337 337 339 338 336 342 344 338 337 339 345 346 339 338 344 343 340 340 340 342 340 333 333 335 333 334 337 335 334 335 334 334 333 333 334 333 335 336 335 337 338 341 342 342 344 347 348 350 353 354 355 355 353 351 349 346 343 342 343 345 343 340 335 333 334 337 339 339 333 326 323 321 320 320 321 321 323 325 327 327
349 352 350 341 336 342 342 340 342 335 327 333 343 341 334 333 343 355 348 339 341 339 335 339 343 344 342 335 333 332 334 340 343 337 335 336 335 334 334 334 334 335 336 336 337 338 339 340 340 339 341 346 350 352 353 354 355 354 353 352 350 347 344 341 341 343 342 338 336 336 337 338 338 338 334 329 324 321 320 320 320 322 324 326 327 327
341 346 354 347 338 341 344 338 335 330 329 337 344 342 335 329 338 351 346 340 341 337 333 338 342 339 337 332 331 332 339 345 342 336 335 337 334 334 335 334 335 335 337 337 338 338 338 337 333 332 334 338 346 353 354 353 354 353 352 352 349 348 345 341 341 342 341 339 339 339 338 337 338 337 335 331 328 324 323 322 322 325 328 330 331 331
349 354 357 348 341 344 343 336 333 332 336 341 341 339 334 330 339 343 335 335 342 337 333 337 338 335 333 331 332 336 341 344 341 338 336 337 337 336 335 336 337 337 339 340 339 339 337 335 335 336 336 339 347 354 355 354 353 352 351 351 348 346 345 343 342 341 340 341 341 339 338 338 338 337 335 335 334 331 328 326 327 330 332 334 334 334
350 351 350 345 344 347 343 335 331 334 340 341 337 337 334 335 347 343 335 339 342 337 335 337 335 335 335 333 335 338 339 338 337 338 337 336 338 338 337 338 339 340 341 342 341 340 337 336 338 338 340 346 354 356 354 351 350 349 349 348 347 347 346 345 343 341 340 340 340 338 339 340 337 337 337 338 339 338 334 331 331 332 334 335 334 333
349 346 346 347 347 348 350 344 336 336 342 338 335 337 335 336 344 340 338 341 339 336 339 338 335 336 337 336 337 337 337 337 338 338 338 336 337 338 338 338 338 339 341 341 340 339 336 337 339 339 339 348 355 357 355 352 348 346 345 344 345 347 346 344 343 341 339 339 338 339 339 338 337 338 340 341 342 341 339 337 334 334 335 335 334 334
348 342 341 344 344 348 354 349 339 338 341 337 337 345 345 340 341 340 338 339 337 336 338 337 337 337 335 335 337 336 336 338 337 338 339 338 337 338 338 338 338 338 339 339 338 338 336 335 340 342 343 347 353 356 357 354 348 345 344 342 341 344 346 344 342 341 339 338 339 339 338 338 339 341 343 343 342 340 339 338 338 337 337 336 335 335
343 344 345 344 345 350 350 345 339 338 338 335 337 344 342 338 340 339 336 337 336 335 335 336 337 337 335 336 336 335 335 337 336 337 337 337 337 338 338 338 339 338 338 338 337 337 336 336 340 344 345 348 352 355 354 351 345 340 341 342 339 340 345 346 343 341 340 339 340 339 338 339 341 342 342 342 341 340 338 337 338 338 337 336 335 335
339 345 346 342 342 347 346 343 340 336 334 333 333 334 334 334 335 335 334 335 335 335 336 335 335 337 337 336 336 336 337 338 338 338 337 336 337 337 337 338 338 338 339 339 338 337 336 338 341 344 347 349 350 351 349 346 341 338 341 345 342 342 346 346 343 342 341 340 340 338 338 340 341 342 341 341 341 340 339 338 338 337 336 335 335 334
337 339 343 342 342 341 340 339 338 334 332 332 331 330 331 331 330 330 331 331 332 333 334 335 337 338 337 336 337 338 338 339 338 338 337 338 336 335 335 334 334 335 338 339 340 340 338 338 340 345 348 346 344 345 344 342 341 339 342 346 346 344 344 343 341 341 340 339 339 339 339 341 341 342 341 341 341 340 339 338 337 335 335 335 335 335
337 336 342 346 343 340 338 339 340 336 333 332 332 331 333 332 330 330 329 329 330 331 331 332 334 336 337 336 336 338 337 337 337 337 336 335 334 333 334 334 334 334 337 339 341 341 341 343 345 348 348 343 341 343 343 342 342 339 339 344 345 342 338 339 340 341 340 341 341 340 341 342 342 342 342 341 341 340 338 337 336 336 336 336 334 332
339 336 342 348 347 345 341 339 339 335 331 332 332 331 332 332 331 331 330 329 330 330 329 329 329 332 335 334 335 337 337 336 334 334 333 333 333 334 336 338 339 339 339 341 342 342 345 349 348 347 345 340 339 341 340 340 341 337 335 340 343 342 341 342 342 342 342 342 343 342 342 342 341 340 340 340 339 339 338 338 337 335 334 332 330 329
339 339 341 344 346 344 339 336 337 334 332 332 331 330 330 331 330 330 329 328 328 327 327 327 326 328 329 330 331 333 336 335 335 334 333 333 335 337 338 339 341 342 342 342 342 342 344 346 346 344 341 340 339 339 338 339 340 336 337 341 343 344 343 341 341 342 342 341 340 338 336 335 333 332 333 334 336 336 337 337 335 332 331 330 329 328
340 339 339 341 344 344 340 337 338 339 336 333 330 330 331 330 329 329 328 327 326 325 325 326 325 325 326 326 327 327 329 331 334 335 333 333 335 337 338 337 338 340 340 341 341 340 340 341 343 343 341 340 339 338 337 339 339 336 338 340 341 340 336 333 334 336 336 334 330 326 325 324 324 325 327 329 332 334 334 333 332 331 330 329 329 329
338 338 337 342 344 342 338 334 333 335 336 332 329 329 328 328 329 329 327 326 325 325 325 324 323 322 323 324 325 325 325 327 330 334 334 333 334 335 336 335 336 337 339 340 339 339 339 339 341 341 341 340 339 337 337 337 336 335 337 336 334 333 332 330 329 327 325 324 323 321 321 321 321 324 327 329 332 333 333 332 331 330 329 329 328 328
Wind_Speed
9 5 4 6 7 8 7 8 9 7 5 6 6 6 7 7 5 8 10 12 14 11 10 14 14 15 17 15 17 26 28 25 25 23 25 29 30 31 31 32 31 29 27 23 25 28 25 24 23 25 27 24 23 22 20 19 17 16 15 16 17 15 14 14 14 13 13 13 12 12 12 11 10 8 8 7 7 8 8 8 8 7 8 8 8 10
7 6 6 9 11 10 9 8 8 5 5 7 8 7 7 7 7 10 12 13 11 8 8 14 15 15 17 15 18 25 22 20 25 24 26 30 31 32 32 32 33 30 28 25 27 28 25 26 25 26 27 26 25 23 21 20 19 18 18 18 18 17 17 15 13 12 11 11 10 10 9 8 8 8 8 8 7 8 7 7 7 7 8 8 8 10
4 6 9 11 9 8 8 7 7 5 5 7 7 7 6 5 5 6 8 13 10 5 6 13 14 12 15 16 17 23 21 22 32 32 31 35 33 33 33 33 34 32 29 28 29 29 28 27 26 26 27 25 25 24 22 21 20 20 20 20 19 18 17 15 12 12 11 10 9 8 8 8 9 9 10 9 9 9 9 9 10 10 10 10 9 9
4 6 10 11 8 6 7 8 6 5 5 5 5 5 5 5 6 5 6 12 8 5 10 13 10 9 11 12 13 22 27 26 33 36 36 40 38 38 38 36 37 36 33 32 32 31 30 29 28 27 27 26 26 25 24 23 22 21 21 20 20 18 17 14 13 13 12 10 10 9 9 10 10 11 11 10 10 10 10 10 10 10 9 9 9 9
6 8 9 9 8 7 8 9 6 5 5 5 7 7 5 8 12 9 6 8 3 4 12 12 5 4 8 10 10 16 22 22 28 32 32 37 41 40 39 38 40 39 37 36 34 33 32 31 30 29 28 27 27 27 25 24 23 21 21 20 19 18 16 15 14 13 13 12 12 11 11 11 11 12 12 11 10 10 9 9 9 9 8 8 9 10
7 11 9 8 9 9 7 9 8 6 5 4 7 9 9 11 13 11 8 7 5 2 10 12 6 4 6 10 12 11 12 14 20 25 26 32 35 35 36 38 40 40 39 38 36 36 34 33 31 30 29 28 27 27 25 23 23 22 21 20 19 18 17 17 15 14 13 13 13 12 11 11 12 13 12 11 11 11 11 12 13 13 13 12 12 13
6 10 8 7 10 10 8 8 10 7 4 5 6 10 11 11 12 12 11 8 5 4 10 13 8 3 4 9 12 11 10 12 16 18 23 30 32 33 36 39 41 41 40 39 37 37 36 34 32 31 30 29 28 26 24 23 23 22 21 20 20 19 18 18 16 15 14 13 12 11 11 11 12 12 11 11 12 12 12 13 14 13 11 11 12 12
6 10 9 8 10 9 8 8 9 7 5 6 7 9 10 12 15 16 13 10 5 4 5 7 5 5 6 9 9 10 11 12 14 15 19 27 32 34 37 39 41 43 42 41 40 38 37 35 33 33 31 29 28 26 24 24 24 23 22 21 21 20 19 18 16 15 13 12 12 11 11 12 12 11 10 12 13 13 13 12 12 10 9 10 10 8
5 9 9 11 11 7 7 9 9 7 6 8 8 8 8 10 16 17 14 10 5 6 4 5 3 5 5 5 4 8 10 12 16 18 17 24 32 34 37 40 42 44 44 43 41 39 38 35 34 33 32 29 28 26 26 25 24 23 23 23 22 21 19 18 16 15 13 12 12 11 12 12 11 10 11 13 13 12 12 11 10 10 10 11 10 6
6 11 14 11 9 7 8 11 10 8 7 9 9 7 5 5 8 13 12 8 5 6 8 9 7 5 3 4 4 6 9 12 15 16 17 25 34 36 38 41 42 43 44 43 41 39 37 35 33 33 32 30 29 28 27 25 25 24 24 25 24 22 19 18 17 15 14 13 12 11 11 10 10 11 12 12 12 11 11 10 11 12 11 10 8 7
7 14 15 10 9 10 11 12 10 11 10 7 6 7 4 1 4 6 4 4 5 4 7 11 13 8 3 5 6 8 13 17 15 13 15 22 31 36 39 41 42 43 43 44 42 39 37 35 33 32 32 32 31 29 28 27 26 26 26 26 25 23 20 19 18 16 14 14 12 10 9 9 10 11 12 11 11 10 10 10 10 10 9 8 8 9
9 12 8 7 14 14 10 11 10 9 9 6 2 3 4 4 3 4 3 3 5 5 6 11 15 11 6 5 7 12 17 18 15 15 17 20 29 37 39 40 42 44 44 44 43 42 40 38 36 34 33 33 32 31 30 29 29 29 28 27 26 25 22 20 18 16 15 15 13 11 9 10 11 11 11 11 10 9 9 8 8 7 7 8 9 9
9 10 6 8 16 16 9 8 8 6 6 6 3 4 3 2 1 1 1 2 4 5 6 11 14 10 7 7 12 18 19 16 15 20 25 27 32 37 38 40 42 44 45 45 45 44 43 41 39 37 35 34 33 33 32 32 32 32 30 29 28 26 24 22 20 18 17 16 14 12 10 10 10 11 11 10 10 9 9 8 7 7 7 7 8 8
5 8 9 9 10 13 12 7 7 6 4 6 5 5 5 3 2 3 3 2 2 4 6 8 10 6 5 6 12 20 22 23 26 29 34 36 37 39 42 43 43 45 47 46 46 46 45 44 42 39 38 37 35 34 34 33 34 34 33 31 30 28 26 24 23 21 19 17 15 13 11 11 11 11 11 10 9 9 9 8 7 6 6 6 7 7
6 7 9 8 5 9 13 11 10 8 5 6 5 6 5 5 4 4 3 3 4 4 5 3 5 5 5 6 11 20 26 32 33 29 30 35 40 42 43 42 41 43 45 46 46 47 47 46 43 42 40 39 38 36 35 35 35 35 35 34 32 30 28 27 26 24 21 18 16 14 13 12 11 11 10 9 9 8 8 8 7 6 6 6 6 7
7 8 7 9 9 10 11 10 10 8 6 5 4 6 4 6 6 2 4 5 4 3 4 3 3 5 5 5 5 11 18 21 22 20 23 30 35 36 36 37 39 41 43 44 46 47 47 46 44 43 42 41 40 38 37 37 37 37 37 36 34 31 29 28 27 26 23 20 17 15 14 13 12 10 10 9 9 8 8 7 6 6 5 5 5 6
5 6 6 7 9 11 12 10 10 9 6 3 4 5 5 6 8 4 3 2 3 2 4 2 2 4 2 5 6 1 5 8 13 16 22 28 31 32 33 36 38 40 43 46 47 47 47 47 46 45 44 44 43 41 40 39 39 39 39 38 36 33 30 29 28 27 25 23 20 17 16 14 12 10 9 9 8 8 8 7 6 5 4 5 5 5
5 5 7 7 7 12 16 12 9 10 9 5 5 7 3 2 4 4 2 2 4 1 4 2 3 4 1 3 5 4 7 9 12 15 18 22 28 31 33 37 40 43 46 47 48 48 47 48 48 47 46 45 44 43 43 41 40 39 39 39 38 35 33 31 30 29 27 25 22 19 17 14 12 10 9 8 8 8 8 8 7 5 4 4 3 2
5 3 7 7 7 9 11 9 7 7 7 6 5 6 4 3 1 1 3 2 2 2 4 4 5 4 4 4 3 3 9 11 12 14 15 17 23 29 33 37 41 43 44 45 45 45 46 48 49 48 48 47 46 45 44 43 41 40 40 39 38 37 34 32 31 30 28 26 23 20 17 13 12 11 10 9 9 8 8 7 6 4 4 4 3 2
4 2 5 7 6 7 6 5 6 6 4 3 4 3 2 4 5 3 3 5 4 3 3 4 5 4 5 5 5 8 11 12 13 13 13 16 24 30 32 35 39 40 41 43 45 45 46 48 49 50 49 49 48 48 47 46 44 43 42 41 40 38 36 34 33 32 30 28 24 21 18 14 12 12 11 10 9 8 7 6 5 5 5 5 4 3
4 4 5 8 5 5 6 5 8 8 5 3 3 4 3 1 2 2 1 3 5 4 3 3 4 5 5 5 7 11 12 12 15 14 12 17 26 31 32 35 39 41 43 45 47 47 47 48 50 50 50 50 50 49 49 48 47 46 45 44 42 40 38 37 36 34 32 29 25 22 18 15 13 12 12 11 9 8 7 6 6 7 7 6 4 2
4 4 6 6 6 4 6 8 11 12 10 7 5 6 6 4 4 3 2 2 3 4 5 5 4 6 6 4 6 9 8 8 12 13 12 18 27 30 33 39 41 43 45 45 46 48 48 49 50 50 50 50 49 50 50 50 49 48 47 46 45 43 40 38 37 36 33 30 26 22 18 15 14 13 13 12 10 9 8 7 7 8 8 6 5 4
7 4 4 5 7 7 9 11 12 13 11 9 7 7 7 5 5 5 3 4 2 2 2 4 2 5 6 3 7 8 9 11 17 18 15 20 29 32 35 40 43 44 45 44 44 46 48 49 50 50 50 50 50 50 50 50 50 50 49 47 46 45 41 37 38 38 34 31 27 22 19 16 15 14 14 13 11 10 9 8 7 9 9 6 5 5
7 4 4 4 5 6 8 10 10 10 9 6 4 5 6 5 5 6 5 5 4 3 2 4 1 5 6 2 5 9 11 14 19 23 22 22 28 32 35 38 41 42 43 42 43 45 46 48 48 48 49 49 50 50 51 51 51 50 50 49 47 47 42 37 38 39 36 32 27 22 20 18 16 15 14 13 12 11 9 8 8 9 9 7 7 7
7 5 5 4 4 5 5 5 7 6 5 4 4 5 7 7 7 5 2 3 3 4 5 6 2 6 5 3 2 8 12 11 15 25 29 27 28 32 35 37 39 40 40 41 43 44 44 45 46 47 49 49 50 51 51 52 51 51 51 50 48 48 44 39 39 39 36 32 28 24 21 19 17 15 14 13 12 11 10 9 9 9 9 9 8 8
8 5 6 7 6 6 5 5 7 5 3 3 3 7 9 9 9 5 3 4 3 3 5 7 4 6 4 2 3 8 12 11 13 22 29 30 32 34 36 37 38 37 38 40 42 43 43 44 46 47 49 49 50 52 52 52 52 51 51 51 49 49 46 43 40 38 34 32 29 25 22 19 17 14 13 13 12 12 10 8 7 9 9 9 9 11
5 4 7 10 9 8 8 8 7 7 7 6 6 9 9 9 9 7 5 4 6 5 4 5 7 6 4 5 8 9 10 11 11 15 22 27 31 35 37 37 37 37 37 38 39 40 42 43 45 46 47 49 50 51 52 53 52 51 51 51 49 48 47 45 41 35 34 34 30 26 23 19 16 13 12 12 12 10 8 6 6 8 9 10 11 13
3 5 9 12 14 14 12 9 8 10 12 10 8 9 9 8 8 8 6 5 6 7 5 8 9 12 11 12 12 11 10 10 9 13 21 27 32 37 38 36 35 35 35 35 36 39 41 42 43 44 46 47 48 50 51 52 51 51 52 51 50 49 47 46 40 31 33 38 33 27 23 18 15 12 10 11 11 9 7 6 6 7 9 10 11 13
5 6 9 11 14 16 13 10 9 11 12 12 12 12 11 9 8 8 8 7 9 8 7 9 13 16 15 15 15 15 15 14 16 22 29 32 35 36 36 34 34 34 34 35 36 38 39 40 41 42 43 45 46 48 49 49 49 50 50 48 46 43 41 40 36 31 35 41 36 28 21 17 15 11 10 12 11 9 8 7 6 7 9 10 11 11
5 6 9 13 13 13 13 11 8 8 10 12 13 11 7 7 9 9 8 8 11 9 8 13 15 14 14 16 17 16 16 18 22 26 29 31 32 33 33 33 34 33 32 31 32 35 37 38 39 39 41 43 45 47 48 49 49 48 46 44 42 38 34 34 35 34 37 42 36 25 19 18 15 10 11 12 9 8 11 9 8 9 10 10 11 11
6 6 7 11 9 9 10 9 5 6 8 9 8 5 4 3 3 3 4 6 6 4 5 15 16 11 9 10 10 10 12 14 16 18 22 26 30 31 31 31 31 30 29 28 29 32 35 36 37 38 39 41 42 44 46 47 46 45 44 45 45 43 39 39 40 39 40 42 35 25 21 20 15 10 10 9 6 10 14 12 9 11 11 12 12 12
4 4 4 7 6 5 6 6 6 6 6 5 3 1 3 3 2 2 2 3 5 2 3 9 11 9 7 5 8 9 11 12 13 16 20 23 27 28 27 27 28 28 29 29 29 30 32 34 34 35 36 37 38 40 43 45 44 44 46 48 49 47 43 43 42 40 40 39 33 27 24 19 13 9 8 8 11 15 17 14 12 13 13 13 13 13
1 2 3 6 6 5 3 5 7 6 5 1 4 2 5 6 6 5 3 1 3 6 7 6 7 6 3 6 9 9 9 10 12 17 21 22 24 25 24 23 23 24 24 24 24 25 26 27 27 30 33 34 33 36 41 44 45 46 48 48 49 48 45 42 42 40 40 37 32 28 24 18 13 9 8 12 17 19 19 16 15 15 15 15 14 14
3 1 3 5 5 4 3 4 6 5 4 2 5 2 5 8 10 8 4 2 2 5 6 6 7 6 5 5 7 7 8 11 15 20 22 21 21 20 18 17 18 17 16 15 14 15 16 17 19 23 27 29 31 33 38 42 44 46 46 46 47 46 42 40 40 41 40 38 35 30 23 18 14 11 12 15 19 21 21 19 17 18 18 17 16 16
4 3 0 2 4 3 1 5 5 2 4 4 4 2 6 11 13 11 6 5 4 7 8 5 7 11 11 11 13 12 11 14 18 18 17 16 15 15 14 15 16 15 13 11 9 7 8 9 11 15 19 24 28 32 35 38 41 43 43 44 45 46 43 42 43 44 42 39 36 33 27 23 20 18 18 20 22 22 22 21 20 21 21 20 18 17
3 2 2 2 2 3 3 5 4 6 5 5 2 2 5 7 9 10 8 8 9 7 8 8 7 8 12 17 22 23 20 18 16 13 12 11 10 10 11 13 14 12 9 7 5 4 4 5 7 10 14 19 24 29 33 35 38 41 42 42 44 44 42 42 42 43 43 40 37 36 32 28 25 22 21 23 25 24 23 23 23 24 23 22 19 16
5 3 2 3 2 3 4 3 1 1 4 6 4 2 2 0 5 7 5 3 7 9 4 7 9 7 9 15 21 26 24 17 11 7 9 10 8 9 10 9 10 8 6 5 4 5 5 5 7 8 11 15 20 26 31 34 36 38 39 40 41 42 40 39 39 41 42 41 37 33 30 28 26 24 22 24 26 27 25 25 25 25 24 21 18 17
5 3 4 3 1 2 5 4 3 3 2 2 6 8 5 2 9 10 7 3 7 11 9 2 9 9 9 12 18 22 19 11 5 2 6 9 6 7 10 9 9 9 6 5 4 5 6 7 8 8 10 12 16 22 29 33 36 37 38 38 41 42 41 40 41 43 45 45 39 31 29 30 28 26 25 24 27 29 27 26 25 25 22 20 19 18
6 3 4 5 1 2 5 4 2 3 2 4 7 8 6 2 8 8 8 3 7 12 12 1 7 9 10 14 17 16 11 6 2 3 4 9 8 9 14 13 11 9 6 4 4 5 7 8 8 9 10 12 14 20 26 31 35 37 35 35 38 41 41 41 44 46 47 47 43 35 31 30 29 28 26 25 27 29 28 26 25 23 21 20 20 20
6 4 4 4 3 3 4 3 2 2 1 4 5 8 10 3 6 8 6 2 8 13 12 9 8 6 8 14 13 9 6 6 6 3 7 11 10 10 12 10 8 6 5 5 5 6 7 8 8 9 10 12 15 19 24 30 35 36 31 31 37 41 41 40 42 44 44 45 43 36 30 28 28 28 27 25 26 27 26 25 25 25 24 24 23 23
4 3 3 4 4 4 5 3 1 0 1 5 9 14 15 9 8 7 3 6 6 9 14 20 20 16 16 18 15 9 8 10 11 11 11 12 11 10 8 5 4 3 4 5 5 6 7 8 9 9 9 11 13 18 23 28 33 31 27 30 37 40 38 36 36 38 39 41 41 36 30 28 28 29 28 25 25 26 25 25 26 27 28 29 28 28
1 2 3 2 2 2 3 4 1 1 2 10 15 15 13 7 3 4 5 4 4 13 20 24 24 22 23 23 19 15 14 15 15 15 14 13 11 9 6 4 2 1 4 5 7 9 10 10 10 10 10 11 15 19 22 25 28 28 26 31 35 34 32 31 31 33 35 38 38 34 29 28 28 28 27 26 26 26 26 26 28 29 31 31 30 30
1 1 2 1 1 2 2 3 3 2 6 15 14 8 9 5 3 5 8 9 13 21 24 23 22 21 21 21 19 18 17 16 16 15 14 14 12 9 6 3 1 1 4 7 9 10 11 11 11 10 11 13 16 19 22 24 25 24 25 32 34 30 26 27 29 31 34 35 33 30 27 27 26 25 26 27 28 27 26 27 29 31 31 31 31 30
1 1 2 2 1 2 3 2 2 5 8 15 14 7 7 9 8 8 9 9 13 20 24 22 21 19 19 18 17 16 16 15 14 12 12 12 11 9 6 3 1 4 7 9 10 11 11 12 12 10 11 13 15 19 22 21 18 17 20 28 34 30 24 24 27 30 32 30 28 27 26 24 23 24 26 28 29 28 28 28 30 30 29 30 30 28
3 4 4 2 1 3 4 3 3 3 4 15 23 20 18 22 21 19 18 16 15 16 18 18 17 15 14 14 15 15 14 12 11 11 12 12 12 11 8 6 5 6 8 10 12 13 14 13 12 11 12 14 16 18 19 16 16 17 17 19 25 25 21 20 22 25 26 25 25 25 24 23 24 26 27 28 28 28 27 27 27 26 26 27 27 25
2 3 5 4 2 3 5 1 0 6 11 17 24 26 26 27 26 26 26 24 23 22 19 16 16 14 13 13 15 16 14 10 9 11 12 12 13 13 12 11 9 9 10 12 14 15 15 15 15 14 15 15 16 17 15 13 16 18 15 13 19 20 18 18 20 21 21 22 23 23 24 24 26 27 27 27 27 25 24 24 23 22 23 24 24 23
2 3 5 4 3 4 4 3 4 6 11 13 15 17 18 18 19 22 23 22 21 21 21 20 18 15 14 14 14 14 13 11 11 12 13 13 13 14 13 12 11 10 11 13 15 15 16 17 17 16 16 16 16 15 14 14 17 17 16 15 18 20 20 20 21 21 21 21 21 22 23 24 24 24 24 24 23 22 22 22 22 22 21 21 21 19
1 4 5 4 3 4 4 3 2 6 11 14 16 15 13 12 11 12 13 14 14 15 17 20 20 17 15 16 15 14 12 13 13 13 13 14 13 13 13 12 10 10 11 14 15 15 15 16 16 16 16 17 16 17 19 18 18 19 21 18 20 22 23 23 21 20 19 19 19 19 19 20 20 20 21 20 20 19 19 19 19 18 17 16 16 16
4 4 3 3 4 5 4 4 4 9 12 14 18 18 15 13 12 12 10 11 14 15 13 12 14 15 15 15 15 14 12 13 14 13 12 12 11 11 11 10 9 9 10 11 12 12 12 13 15 16 17 18 19 22 24 23 22 23 22 20 20 19 18 16 15 17 17 17 17 16 17 17 17 17 16 16 16 15 15 15 15 14 14 15 16 15
6 3 2 4 5 3 3 5 7 8 6 7 13 15 11 9 10 12 13 12 14 15 12 8 9 11 12 12 13 15 14 13 13 12 10 9 10 10 9 8 8 8 8 8 9 10 11 13 15 18 20 21 22 23 22 21 21 22 19 17 16 15 12 11 14 16 15 15 14 14 13 13 12 12 12 12 11 12 12 13 13 14 15 16 16 15
4 6 5 6 4 2 5 10 12 10 7 7 11 14 13 12 12 13 13 12 10 9 8 9 11 13 13 11 12 15 17 14 12 13 12 9 8 8 9 9 9 8 8 9 10 11 12 14 18 21 22 22 21 19 19 18 18 19 18 15 12 11 11 13 13 11 9 10 11 10 9 9 9 10 11 11 12 13 13 13 14 15 16 16 17 16
Wind_Direction
195 214 245 226 237 226 201 189 206 228 220 198 174 157 168 169 182 185 178 186 169 146 163 165 156 164 169 174 173 171 171 171 173 171 170 176 177 179 183 186 190 193 194 196 195 193 193 194 194 198 200 200 203 205 205 203 202 210 214 211 212 212 211 210 207 211 214 217 221 222 227 232 229 229 229 231 236 239 239 244 256 269 283 293 294 298
185 208 233 222 232 229 219 213 213 236 251 218 187 175 180 175 190 194 181 184 173 138 165 165 155 166 171 174 175 171 171 176 178 173 173 178 180 181 184 188 190 191 191 192 188 188 191 191 192 194 197 198 199 200 202 204 208 213 216 215 215 214 214 213 211 211 210 212 218 220 226 224 218 218 216 218 225 226 230 242 259 269 274 276 282 291
196 221 233 226 233 235 238 238 223 233 245 231 202 170 187 189 181 212 194 179 172 125 162 167 156 170 179 176 176 176 176 181 182 179 177 179 180 182 185 187 188 186 187 188 185 186 190 190 192 194 197 199 201 203 206 210 215 215 214 214 214 215 215 212 208 208 207 208 213 218 221 219 218 219 218 219 224 231 238 241 247 253 257 257 258 268
212 235 230 225 239 243 250 256 240 242 244 227 208 178 193 188 169 220 212 178 174 133 159 166 156 173 183 177 182 184 182 182 183 183 181 182 183 185 188 188 186 185 186 188 189 190 192 194 197 200 203 207 209 212 214 213 213 211 208 207 207 209 209 206 205 207 205 204 211 216 217 220 222 219 219 222 226 236 240 238 242 249 254 253 246 245
225 243 224 214 236 239 244 258 245 238 250 222 200 196 191 189 191 202 189 165 134 111 152 148 131 186 188 184 191 190 187 184 182 182 182 185 188 188 188 188 188 189 189 190 192 196 199 202 205 207 210 213 214 216 215 210 206 204 201 200 201 201 199 199 202 204 203 204 210 214 217 222 223 221 223 223 226 232 233 240 250 255 258 259 253 253
234 248 229 204 231 238 237 254 242 216 238 248 214 203 192 193 199 192 168 141 94 122 166 144 134 236 218 194 195 189 187 187 184 184 185 186 188 187 186 187 189 191 193 194 196 200 204 207 209 211 211 211 213 212 209 204 201 199 198 196 194 193 192 195 200 201 202 207 212 217 222 226 228 230 230 229 233 239 241 248 255 260 264 263 263 269
227 246 239 213 226 236 233 248 245 209 205 257 232 207 198 187 189 184 168 154 140 189 190 165 154 200 231 218 208 191 180 188 191 190 190 188 186 187 186 187 190 191 193 196 199 202 205 208 210 211 210 209 209 207 203 201 199 197 196 193 191 190 189 191 197 200 203 209 214 219 225 229 234 237 237 239 243 249 250 251 256 261 263 263 269 275
203 224 240 233 228 232 231 243 243 201 192 248 234 209 201 175 171 176 171 178 178 137 183 193 129 125 200 221 206 188 181 188 197 198 195 192 190 189 189 190 191 193 195 196 198 201 204 208 210 211 210 208 206 204 202 200 198 196 194 192 191 189 188 190 196 201 205 210 215 219 222 227 234 238 239 242 247 252 255 256 261 268 274 279 286 287
210 205 223 231 231 230 225 237 232 196 197 240 234 209 192 167 169 172 172 191 178 117 171 228 120 123 220 235 167 179 189 191 200 201 197 195 194 192 191 193 194 195 197 198 199 202 204 206 209 209 208 206 205 205 203 201 198 196 193 191 192 190 189 192 196 201 205 209 214 218 222 227 234 239 240 246 249 250 252 254 260 267 273 280 286 290
224 208 212 216 230 231 226 239 226 199 211 236 237 212 169 139 162 171 175 181 150 141 190 206 182 164 242 248 163 174 201 203 203 202 200 197 195 194 194 195 196 196 198 200 201 203 204 205 207 207 207 206 206 205 203 201 198 197 195 193 194 192 191 193 198 202 203 206 212 216 224 232 237 240 243 245 244 243 246 247 249 256 263 269 273 279
235 226 220 208 224 227 227 241 223 200 211 233 254 235 221 38 105 155 174 130 131 189 214 203 195 189 221 240 195 187 205 203 195 194 201 199 196 196 197 196 196 196 197 199 202 204 205 206 206 204 203 204 205 205 204 202 200 199 198 196 196 195 195 197 198 200 202 205 211 216 225 234 238 244 246 241 235 237 240 238 241 248 256 263 267 271
243 239 235 210 221 222 224 243 234 209 206 217 247 199 228 295 54 76 19 79 157 223 231 203 198 199 220 241 215 213 216 204 189 186 193 197 197 197 197 197 197 197 198 199 201 203 204 204 204 201 200 202 203 203 203 203 201 201 201 200 200 200 200 200 199 200 203 206 209 213 220 229 238 244 243 236 229 229 232 233 238 245 251 259 265 263
240 235 240 230 225 215 209 237 243 234 207 203 199 111 129 264 329 106 204 179 196 235 233 193 185 199 224 224 208 212 219 213 195 190 192 192 192 194 197 197 196 196 197 199 200 202 202 202 202 199 197 200 201 201 201 203 203 201 202 204 204 204 203 202 202 201 203 207 208 211 216 222 232 238 235 229 224 224 226 225 224 229 239 249 254 249
251 246 229 227 230 211 204 215 230 242 214 187 188 148 138 148 166 228 228 213 214 252 252 191 172 199 248 242 209 205 213 211 203 198 193 189 188 191 197 198 196 196 197 199 200 201 202 202 201 199 198 200 201 201 200 202 204 204 204 205 206 207 207 206 205 203 203 207 209 209 213 218 224 228 226 222 221 220 216 213 211 217 230 237 235 233
221 248 224 213 216 200 205 208 203 204 204 204 174 150 161 154 163 215 207 194 204 236 260 206 168 192 209 233 210 200 208 209 205 199 187 185 188 191 196 197 195 195 197 199 201 202 203 203 202 200 200 202 203 203 202 203 206 207 207 207 207 208 209 209 208 205 202 203 207 210 212 214 216 217 218 217 220 219 211 208 208 212 223 227 221 219
211 241 237 219 211 200 205 205 187 174 198 225 142 121 175 175 160 189 195 189 178 205 249 213 199 210 204 263 248 201 207 204 195 182 169 179 189 189 192 196 195 195 197 200 202 203 204 203 203 203 202 204 205 205 205 206 207 209 209 209 209 208 209 211 211 208 203 200 204 209 210 211 209 208 209 209 214 217 211 207 209 216 224 222 219 221
201 248 260 222 213 215 210 186 167 171 187 216 165 171 213 174 144 145 229 262 91 154 262 239 259 291 289 306 322 107 168 174 168 170 171 176 181 182 188 193 194 195 197 201 205 204 204 203 204 205 205 205 206 206 207 209 210 211 210 210 210 210 210 212 214 212 206 200 200 206 210 207 203 201 202 203 206 209 209 206 208 219 230 232 232 230
186 258 273 219 213 229 217 197 183 180 160 146 201 208 208 135 110 115 178 340 57 170 276 294 257 277 222 267 320 73 137 172 173 175 175 171 173 179 187 191 194 197 199 203 206 206 204 204 204 205 206 207 209 210 211 212 214 214 213 213 212 211 211 212 215 214 210 203 200 203 208 203 197 197 198 199 202 204 206 206 206 216 231 229 221 210
190 255 283 236 221 229 215 202 212 211 171 150 186 195 163 154 178 114 160 167 118 200 272 303 282 251 197 229 266 156 173 185 178 175 173 169 174 181 186 190 194 198 200 202 204 205 204 204 204 204 206 209 211 213 214 215 216 217 218 218 217 216 214 213 214 215 212 206 201 203 206 202 196 197 197 198 200 201 205 208 211 220 213 187 156 120
193 197 284 269 237 203 192 192 208 230 229 158 154 183 173 159 174 185 170 160 162 189 221 284 295 267 226 217 203 195 193 182 174 176 175 176 181 183 184 188 193 197 199 201 203 205 206 206 206 206 208 210 211 213 215 214 216 218 219 220 220 220 219 216 214 213 211 206 201 202 203 199 198 201 202 198 197 200 202 204 211 209 189 169 144 120
187 180 246 286 282 202 197 207 193 195 202 175 158 186 210 181 140 165 208 152 144 160 181 217 256 266 250 215 191 195 194 181 173 171 174 182 185 185 183 184 191 197 201 204 205 206 207 207 208 209 210 211 212 212 213 215 217 218 218 220 221 221 221 218 214 212 211 206 201 201 199 195 197 201 204 201 198 198 195 197 204 197 185 176 174 179
179 176 208 258 280 244 229 224 199 188 185 174 169 186 192 177 125 128 260 264 143 154 170 180 219 263 264 219 183 181 178 175 171 167 172 182 184 186 185 185 191 199 203 205 206 207 208 209 209 209 210 210 210 210 212 215 216 216 217 220 221 222 222 220 216 213 210 206 202 200 196 193 195 200 206 206 202 200 196 197 199 196 194 195 200 225
176 154 179 224 253 245 240 233 207 189 180 173 180 188 181 164 129 131 193 235 221 182 141 123 164 268 273 217 164 164 164 168 171 169 170 178 182 184 186 188 194 201 204 206 207 209 210 211 211 210 210 210 210 211 213 215 215 216 218 220 221 222 221 221 220 215 209 206 202 197 192 192 196 199 204 206 206 204 198 195 197 197 200 205 213 237
180 173 182 230 276 270 259 250 223 191 168 165 186 175 168 178 164 150 170 186 192 201 142 86 100 262 282 288 158 159 155 157 165 168 169 173 180 184 186 189 194 200 205 208 210 212 212 212 211 210 210 210 211 213 214 215 216 216 217 220 222 221 219 220 222 216 209 206 200 194 192 193 196 198 201 205 207 205 196 193 197 198 203 216 225 240
182 185 165 183 256 267 278 270 240 215 184 183 188 175 184 187 162 139 119 131 178 216 157 123 185 246 281 344 148 156 146 149 165 170 171 171 176 182 185 189 194 200 206 209 210 211 211 211 211 211 212 212 212 214 215 216 217 216 218 221 222 221 218 219 221 214 208 206 199 193 193 194 197 198 197 201 206 203 195 193 200 207 215 227 237 250
179 182 158 176 210 217 212 216 217 209 207 220 177 173 193 196 175 156 113 131 191 218 137 134 188 249 290 330 200 174 153 155 168 169 172 175 177 181 184 187 194 201 206 209 209 211 212 212 213 213 214 214 214 216 217 217 217 216 219 222 222 222 220 218 216 211 208 208 201 193 193 195 196 197 196 201 205 201 192 190 203 217 227 237 248 258
161 179 171 179 194 200 200 216 214 175 179 210 197 180 193 198 179 148 114 154 188 169 170 197 178 173 212 208 202 197 168 161 167 165 170 176 178 180 182 186 193 199 204 208 209 212 214 214 215 216 217 217 218 219 220 219 218 217 219 221 220 222 222 216 210 207 208 211 205 194 193 193 192 194 197 203 206 201 195 195 207 220 230 242 252 257
123 186 188 182 196 210 210 217 215 185 186 199 194 195 206 194 160 140 154 188 161 142 212 237 176 158 188 200 195 196 179 168 173 167 166 172 177 181 184 189 195 199 203 207 210 213 215 216 218 220 221 222 222 222 222 220 218 217 220 222 220 221 220 212 208 210 209 210 208 197 191 191 191 193 197 203 206 201 200 203 206 217 231 242 250 253
131 193 198 181 199 218 215 213 206 187 192 197 194 205 216 204 173 167 186 178 149 157 212 215 181 172 184 192 192 192 184 177 176 171 168 170 175 179 183 188 193 196 202 207 211 215 217 219 220 221 222 223 224 224 222 218 217 218 219 219 217 215 211 207 213 221 213 209 207 198 190 191 189 190 202 204 201 200 204 204 201 212 228 237 242 244
171 203 197 182 200 217 211 212 200 171 184 198 198 202 207 208 198 189 190 174 167 184 189 178 184 191 189 190 196 198 188 175 169 166 167 171 173 176 179 183 188 193 198 204 210 215 219 222 223 224 224 224 224 224 222 219 218 217 213 210 208 205 205 211 223 226 216 210 205 196 192 194 189 196 209 202 197 211 214 206 195 205 219 226 231 238
219 225 194 176 192 213 207 205 185 162 175 182 186 186 172 203 234 191 174 169 173 213 182 168 181 206 210 191 177 174 170 159 155 161 168 173 176 177 180 183 188 193 198 203 209 214 217 221 224 227 227 227 227 228 226 222 217 212 209 210 211 212 216 224 227 224 218 211 203 196 193 192 192 201 203 198 220 230 218 208 201 206 217 224 229 237
247 238 188 148 156 202 201 163 143 149 154 154 187 208 119 104 62 79 107 136 150 148 123 154 182 214 221 167 119 133 154 151 151 160 165 170 174 179 184 189 194 198 202 206 210 213 217 222 226 230 231 231 232 232 228 221 214 211 212 214 216 218 224 228 224 219 215 209 202 196 192 192 198 204 206 236 249 232 217 214 213 215 222 229 233 238
222 185 176 143 152 219 228 139 127 105 82 90 262 254 105 107 111 104 73 52 159 144 127 160 205 228 209 141 128 141 156 152 154 159 158 160 166 173 181 187 194 201 204 208 215 220 226 233 238 240 239 236 237 235 229 222 219 219 220 221 221 220 220 221 217 212 210 207 200 195 193 194 200 212 238 250 240 227 221 221 223 225 232 236 239 244
5 109 179 149 144 220 248 113 95 79 96 191 248 228 113 110 104 94 66 326 233 139 133 178 183 139 110 126 135 147 157 150 149 151 151 151 151 154 161 169 177 187 193 200 213 222 231 238 243 247 247 245 243 239 230 226 227 227 225 223 218 212 210 212 213 211 209 204 196 191 189 187 196 228 250 237 225 225 226 226 229 234 238 242 245 248
13 30 358 98 119 174 198 92 96 174 208 226 239 186 115 107 103 95 67 11 29 92 95 97 125 127 126 121 112 111 123 132 132 132 136 143 148 152 164 174 176 179 187 193 202 216 232 240 241 245 248 248 246 241 235 231 230 227 224 220 216 214 214 215 215 211 207 201 193 189 191 195 211 239 248 232 227 231 230 230 236 239 241 245 248 252
94 46 26 31 92 128 88 86 148 212 261 312 313 124 92 84 88 82 54 8 1 37 78 93 99 110 120 123 124 126 129 129 127 131 141 151 164 174 180 183 180 179 185 191 206 232 244 260 263 255 251 250 249 246 241 236 231 225 222 220 219 217 212 209 209 207 204 200 194 193 200 211 226 243 245 234 233 235 233 234 238 241 244 248 252 260
120 101 76 41 31 117 112 102 166 225 344 345 339 334 346 92 136 113 87 352 340 352 16 119 116 105 115 124 131 135 134 126 116 132 156 162 185 205 199 189 180 175 176 185 210 235 242 263 277 270 263 257 253 249 242 235 229 224 220 218 215 209 203 202 205 206 203 199 195 199 213 225 237 246 244 234 232 235 237 237 240 245 248 251 258 266
106 123 138 122 30 88 96 69 35 55 53 301 287 299 317 146 148 127 91 4 328 340 337 144 140 137 132 131 139 138 127 108 93 150 155 139 145 179 180 175 173 174 180 189 209 232 245 263 275 277 275 265 257 253 244 236 229 222 217 217 216 212 209 208 207 206 204 202 203 215 229 235 242 250 247 238 234 236 240 242 244 249 252 256 262 265
53 57 106 107 76 75 94 92 105 123 167 245 270 300 328 109 142 111 66 3 302 329 342 14 154 153 144 144 148 139 116 108 177 245 147 128 129 153 165 170 177 184 195 216 241 253 257 266 276 279 275 267 259 251 242 234 226 217 214 220 220 215 211 209 208 208 208 210 216 226 235 239 244 250 248 243 239 239 244 250 253 257 259 259 261 261
27 16 51 78 63 57 92 117 149 140 231 273 293 318 327 360 102 83 71 244 285 326 3 60 92 98 115 124 124 111 103 141 160 130 115 128 138 152 162 172 182 189 192 197 216 244 261 272 281 283 277 273 263 248 238 231 223 215 218 226 222 215 213 214 214 214 215 219 222 227 236 243 246 248 248 247 245 244 249 256 260 261 258 254 256 258
9 14 39 100 93 56 79 101 74 146 338 333 331 332 338 4 63 81 155 228 291 358 46 73 77 71 77 87 89 85 99 115 114 107 107 115 123 134 146 158 162 174 189 194 213 246 270 280 287 289 284 274 257 240 229 221 215 212 222 228 222 219 221 222 220 219 219 219 221 227 240 247 246 247 248 248 247 247 250 256 258 258 255 253 256 259
2 358 3 61 93 72 109 104 47 245 341 343 333 339 5 34 92 130 167 186 57 55 63 71 75 76 76 79 83 87 90 89 88 91 93 94 99 109 122 135 133 185 218 229 250 265 276 283 284 282 276 261 244 234 228 220 212 211 224 230 224 223 226 224 220 219 217 217 222 231 242 245 246 249 250 248 248 248 250 255 258 258 255 253 257 259
123 49 6 14 67 71 90 72 79 214 313 346 349 353 24 46 174 155 127 118 88 75 69 65 67 73 74 76 78 75 72 71 74 80 84 86 85 88 102 116 84 290 257 259 264 267 278 284 278 273 271 261 245 235 232 229 219 214 229 239 234 226 224 221 218 217 216 218 225 234 240 244 248 252 251 250 249 251 255 259 259 256 253 253 256 260
140 210 176 213 265 79 90 66 133 217 304 6 44 69 37 50 83 89 82 86 81 78 76 66 58 62 70 72 70 64 58 54 54 58 63 66 68 74 85 91 329 286 276 272 267 268 276 276 269 266 264 257 246 234 230 231 226 220 234 243 236 226 220 218 217 217 218 222 228 233 236 243 249 250 251 252 252 254 258 258 254 251 253 256 258 260
211 204 148 118 18 99 124 179 197 214 353 44 69 76 63 62 72 73 67 61 53 61 75 75 63 58 64 67 65 63 60 52 46 42 40 37 36 40 41 27 350 306 285 276 271 271 270 266 265 265 257 247 238 232 231 231 226 217 214 226 230 223 214 210 210 213 217 221 224 228 233 240 246 248 251 255 255 254 254 251 249 251 257 260 260 261
235 174 115 95 104 89 80 73 92 71 65 68 76 79 73 68 65 65 64 58 48 47 55 62 63 61 59 58 58 58 56 50 43 38 31 22 15 13 12 5 351 328 303 287 277 269 261 259 259 256 249 242 234 230 226 217 213 206 195 208 226 217 196 191 195 198 205 211 217 225 233 239 244 247 250 253 252 251 250 249 252 257 260 260 261 264
360 72 86 96 129 111 73 338 326 43 67 78 83 82 77 71 67 65 62 57 54 53 46 40 42 47 49 50 48 42 32 17 12 15 14 8 1 355 354 353 346 332 311 292 278 264 254 251 248 242 239 236 227 216 204 201 205 196 178 194 218 205 182 181 187 188 195 204 213 223 231 236 241 244 246 246 245 245 247 250 254 257 258 259 261 264
87 88 96 97 94 109 139 217 306 47 63 77 85 84 79 75 71 66 57 45 41 42 32 24 22 24 33 41 40 32 16 1 357 0 0 357 353 350 351 349 341 325 304 285 273 261 251 244 241 239 237 230 215 196 188 192 194 182 176 201 226 211 189 186 188 188 192 198 204 215 222 226 230 234 235 238 240 242 246 248 251 253 254 257 259 258
130 113 116 121 102 101 138 179 117 76 62 69 82 84 80 77 72 64 60 51 44 42 31 12 7 10 21 32 33 26 13 356 350 353 354 351 346 344 347 346 339 324 299 280 269 265 260 253 246 241 236 225 208 194 191 191 186 182 191 214 221 201 185 185 189 190 191 193 198 207 213 218 224 229 233 239 243 245 246 246 246 248 249 251 253 252
104 112 95 108 122 137 181 179 141 117 95 84 92 91 89 97 98 86 77 66 58 56 49 24 6 10 19 25 23 15 4 346 331 328 333 338 336 335 340 339 331 318 298 281 270 265 264 256 245 235 227 217 205 195 196 197 191 186 193 203 198 189 189 196 194 190 189 194 201 208 214 223 232 237 244 250 251 251 250 245 243 246 248 250 252 253
122 166 161 129 135 189 159 134 122 118 123 116 105 100 96 99 104 97 82 70 65 63 47 16 1 4 10 11 8 5 1 349 325 307 306 315 323 323 324 320 311 297 283 275 268 262 258 248 237 229 221 212 201 193 193 192 182 176 181 193 207 211 203 193 189 189 197 206 213 220 228 241 251 252 255 259 258 257 255 249 247 249 250 251 253 254